Pian Rosa, Italy

5:27 PM CEST on April 25, 2017 (GMT +0200)
Pian Rosa

Weather History for LIMH - July, 2013

Change the Weather History Date:

Thursday, July 11, 2013

  Actual Average Record
Temperature  
Mean Temperature 36 °F -  
Max Temperature 41 °F 38 °F 50 °F (2010)
Min Temperature 32 °F 29 °F 15 °F (2004)
Degree Days  
Heating Degree Days 28    
Moisture  
Dew Point 24 °F    
Average Humidity 57    
Maximum Humidity 94    
Minimum Humidity 16    
Precipitation  
Precipitation 0.00 in - - ()
Sea Level Pressure  
Sea Level Pressure 30.37 in    
Wind  
Wind Speed 7 mph ()    
Max Wind Speed 15 mph    
Max Gust Speed -    
Visibility 8.7 miles    
Events Rain    
Averages and records for this station are not official NWS values.
T = Trace of Precipitation, MM = Missing Value Source: Averaged Metar Reports

Daily Weather History Graph

Daily Weather History Graph

Search for Another Location

Airport or City:

Trip Planner

Search our weather history database for the weather conditions in past years. The results will help you decide how hot, cold, wet, or windy it might be!

Date:

Astronomy

Jul. 11, 2013 Rise Set
Actual Time 5:49 AM CEST 9:19 PM CEST
Civil Twilight 5:12 AM CEST 9:56 PM CEST
Nautical Twilight 4:23 AM CEST 10:45 PM CEST
Astronomical Twilight 3:18 AM CEST 11:49 PM CEST
Moon 9:05 AM CEST (7/11) 10:37 PM CEST (7/11)
Length of Visible Light 16h 43m
Length of Day
15h 29m
Waxing Crescent, 9% of the Moon is Illuminated
Jul 11
Waxing Crescent
Jul 16
First Quarter
Jul 22
Full
Jul 29
Last Quarter
Aug 6
New

Hourly Weather History & Observations

Time (CEST) Temp. Windchill Dew Point Humidity Pressure Visibility Wind Dir Wind Speed Gust Speed Precip Events Conditions
12:00 AM 34 °F - 33 °F 94%  in 0 mi ENE 4.6 mph - - Rain Light Rain
12:55 AM 33.8 °F 25.3 °F 30.2 °F 87% 30.39 in 5.0 mi NE 11.5 mph - N/A   Partly Cloudy
1:00 AM 33 °F - 29 °F 82%  in 5 mi NE 11.5 mph - -   Scattered Clouds
1:55 AM 35.6 °F 31.7 °F 24.8 °F 65% 30.36 in - East 4.6 mph - N/A   Clear
2:00 AM 35 °F - 25 °F 56%  in 6 mi East 4.6 mph - -   Partly Cloudy
2:55 AM 35.6 °F - 24.8 °F 65% 30.36 in 6.2 mi SE 2.3 mph - N/A   Partly Cloudy
3:00 AM 35 °F - 25 °F 56%  in 6 mi SE 2.3 mph - -   Scattered Clouds
3:55 AM 33.8 °F 27.0 °F 26.6 °F 75% 30.36 in 6.2 mi NNE 8.1 mph - N/A   Partly Cloudy
4:00 AM 34 °F - 26 °F 64%  in 6 mi NNE 8.1 mph - -   Scattered Clouds
4:55 AM 33.8 °F - 28.4 °F 81% 30.36 in 6.2 mi NNW 2.3 mph - N/A   Scattered Clouds
5:00 AM 34 °F - 28 °F 69%  in 9 mi NNW 2.3 mph - -   Partly Cloudy
5:55 AM 33.8 °F 29.6 °F 23.0 °F 65% 30.33 in 6.2 mi ENE 4.6 mph - N/A   Partly Cloudy
6:00 AM 34 °F - 22 °F 50%  in 12 mi ENE 4.6 mph - -   Scattered Clouds
6:55 AM 33.8 °F 26.4 °F 24.8 °F 70% 30.36 in - NE 9.2 mph - N/A   Clear
7:00 AM 35 °F - 25 °F 55%  in 37 mi NE 9.2 mph - -   Clear
7:55 AM 35.6 °F 27.1 °F 24.8 °F 65% 30.33 in - NE 12.7 mph - N/A   Clear
8:00 AM 36 °F - 24 °F 50%  in 37 mi NE 12.7 mph - -   Clear
8:55 AM 35.6 °F 26.6 °F 26.6 °F 70% 30.33 in - ENE 13.8 mph - N/A   Clear
9:00 AM 35 °F - 27 °F 62%  in 37 mi ENE 13.8 mph - -   Clear
9:55 AM 35.6 °F 27.1 °F 23.0 °F 60% 30.30 in - ENE 12.7 mph - N/A   Clear
10:00 AM 36 °F - 23 °F 47%  in 44 mi ENE 12.7 mph - -   Clear
10:55 AM 35.6 °F 28.6 °F 24.8 °F 65% 30.36 in 6.2 mi NE 9.2 mph - N/A   Partly Cloudy
11:00 AM 36 °F - 25 °F 53%  in 37 mi NE 9.2 mph - -   Scattered Clouds
11:55 AM 37.4 °F 31.4 °F 21.2 °F 52% 30.39 in 6.2 mi NNE 8.1 mph - N/A   Partly Cloudy
12:00 PM 37 °F - 21 °F 40%  in 25 mi NNE 8.1 mph - -   Scattered Clouds
12:55 PM 37.4 °F 31.4 °F 17.6 °F 45% 30.36 in 6.2 mi NE 8.1 mph - N/A   Partly Cloudy
1:00 PM 37 °F - 18 °F 32%  in 25 mi NE 8.1 mph - -   Scattered Clouds
1:55 PM 39.2 °F 37.0 °F 19.4 °F 45% 30.39 in 6.2 mi ENE 3.5 mph - N/A   Scattered Clouds
2:00 PM 39 °F - 19 °F 30%  in 19 mi ENE 3.5 mph - -   Partly Cloudy
2:55 PM 39.2 °F 35.0 °F 21.2 °F 49% 30.39 in 6.2 mi NE 5.8 mph - N/A   Scattered Clouds
3:00 PM 39 °F - 22 °F 37%  in 19 mi NE 5.8 mph - -   Partly Cloudy
3:55 PM 41.0 °F 38.0 °F 23.0 °F 49% 30.39 in 6.2 mi NE 4.6 mph - N/A   Partly Cloudy
4:00 PM 40 °F - 23 °F 38%  in 25 mi NE 4.6 mph - -   Scattered Clouds
4:55 PM 41.0 °F 37.1 °F 24.8 °F 53% 30.39 in 6.2 mi NNE 5.8 mph - N/A   Partly Cloudy
5:00 PM 39 °F - 25 °F 44%  in 19 mi NNE 9.2 mph - -   Scattered Clouds
5:55 PM 39.2 °F 33.0 °F 23.0 °F 52% 30.39 in 6.2 mi NNE 9.2 mph - N/A   Partly Cloudy
6:00 PM 39 °F - 25 °F 44%  in 19 mi NNE 9.2 mph - -   Scattered Clouds
6:55 PM 39.2 °F 33.0 °F 24.8 °F 56% 30.39 in 6.2 mi NNE 9.2 mph - N/A   Partly Cloudy
7:00 PM 39 °F - 25 °F 44%  in 19 mi NNE 9.2 mph - -   Scattered Clouds
7:55 PM 39.2 °F 33.6 °F 26.6 °F 61% 30.39 in 6.2 mi ENE 8.1 mph - N/A   Partly Cloudy
8:00 PM 38 °F - 26 °F 50%  in 31 mi ENE 8.1 mph - -   Scattered Clouds
8:55 PM 37.4 °F 29.8 °F 26.6 °F 65% 30.39 in 6.2 mi ENE 11.5 mph - N/A   Partly Cloudy
9:00 PM 38 °F - 27 °F 52%  in 16 mi ENE 11.5 mph - -   Scattered Clouds
9:55 PM 37.4 °F 28.5 °F 28.4 °F 70% 30.39 in - NE 15.0 mph - N/A   Clear
10:55 PM 35.6 °F 30.7 °F 30.2 °F 81% 30.42 in - NNE 5.8 mph - N/A   Clear
11:00 PM 36 °F - 6 °F 16%  in 7 mi NE 9.2 mph - -  
11:55 PM 35.6 °F 30.7 °F 28.4 °F 75% 30.42 in - NE 5.8 mph - N/A   Clear